[[[{"header":{"parameterUnit":"kt","parameterCategory":2,"dx":1,"dy":1,"la1":30.253999710083008,"la2":30.299108505249023,"lo1":-89.0895004272461,"lo2":-89.04439544677734,"nx":28,"ny":28,"refTime":"2022-10-05T21:00:00:Z","depth":"0","parameterNumber":2,"parameterNumberName":"U-component_of_CURRENTS"},"data":[0.3045,0.3028,0.3034,0.2946,0.2906,0.2828,0.2784,0.2693,0.2608,0.2388,0.2236,0.2175,0.227,0.2163,0.2028,0.1956,0.174,0.1476,0.1506,0.2001,0.2054,0.2104,0.204,0.1591,0.1589,0.0967,0.096,0.0955,0.3083,0.3082,0.3063,0.3025,0.2976,0.2997,0.2954,0.2895,0.2797,0.2684,0.2599,0.2543,0.2597,0.2663,0.2727,0.2538,0.2503,0.2356,0.2137,0.2207,0.2854,0.2813,0.2522,0.2522,0.2522,0.2522,0.2522,0.2522,0.312,0.3115,0.3102,0.3091,0.3077,0.3052,0.3024,0.3008,0.2953,0.2826,0.2851,0.2755,0.2864,0.3052,0.3077,0.3035,0.3033,0.3007,0.2838,0.2672,0.2617,0.3247,0.3106,0.3107,0.3108,0.3109,0.3109,0,0.317,0.3175,0.3164,0.3149,0.3147,0.3157,0.3164,0.3135,0.314,0.3082,0.3,0.298,0.3068,0.3132,0.3258,0.3351,0.3233,0.3436,0.3304,0.3077,0.2795,0.2835,0.361,0.3465,0.3469,0.3471,0.3473,0.3474,0.3244,0.3222,0.3243,0.3231,0.3256,0.3259,0.3266,0.3305,0.3279,0.3226,0.3186,0.3191,0.3186,0.3288,0.3448,0.3571,0.3482,0.3511,0.3603,0.3413,0.3274,0.309,0.3106,0.3508,0.3504,0.35,0.3497,0,0.3299,0.332,0.3308,0.3343,0.3359,0.3342,0.3395,0.3367,0.3362,0.3307,0.3293,0.3321,0.3364,0.3487,0.3642,0.3701,0.3636,0.3816,0.3699,0.3715,0.3519,0.3369,0.2927,0.2915,0.372,0.3716,0.3713,0,0.3397,0.3398,0.3438,0.3422,0.3418,0.347,0.345,0.3473,0.347,0.3429,0.348,0.3446,0.3598,0.3642,0.3782,0.383,0.3883,0.3951,0.3982,0.3934,0.3921,0.3859,0.3719,0.4112,0.4112,0.4113,0.4113,0,0.3461,0.3509,0.3497,0.3519,0.3568,0.3572,0.3604,0.3614,0.3613,0.359,0.3574,0.3604,0.3622,0.3726,0.3864,0.392,0.3954,0.4065,0.4027,0.4019,0.4021,0.4014,0.3714,0.4114,0.4114,0.4115,0.4115,0,0.357,0.3576,0.3556,0.3627,0.3639,0.3634,0.3666,0.367,0.3675,0.3695,0.3704,0.3765,0.3774,0.3875,0.3959,0.3974,0.4065,0.4144,0.4146,0.4116,0.4205,0.407,0.3892,0.375,0.418,0.4181,0.4181,0,0.3648,0.3621,0.3695,0.3691,0.37,0.3796,0.3786,0.381,0.3846,0.3836,0.3899,0.3927,0.4015,0.4037,0.4057,0.4184,0.4169,0.4194,0.433,0.4333,0.4228,0.4069,0.3995,0.3914,0.4191,0.419,0.4189,0,0.3718,0.3785,0.3793,0.3807,0.3884,0.3896,0.3892,0.3936,0.3913,0.3965,0.3952,0.4048,0.4091,0.415,0.4232,0.4245,0.4185,0.4342,0.435,0.4296,0.4214,0.4098,0.408,0.4271,0.427,0.427,0.4197,0,0.3858,0.388,0.3867,0.3887,0.3918,0.3942,0.4003,0.4014,0.406,0.4101,0.4139,0.4245,0.4324,0.4347,0.4428,0.4408,0.444,0.453,0.459,0.4496,0.4476,0.4469,0.4611,0.4615,0.4618,0.4621,0,0,0.3952,0.3965,0.4021,0.4011,0.4055,0.4134,0.4133,0.4159,0.4245,0.4263,0.4301,0.4439,0.4532,0.4559,0.4539,0.4595,0.4618,0.4602,0.4544,0.4535,0.4527,0.4502,0.4492,0.4626,0.4628,0.4629,0.463,0,0.402,0.4061,0.4025,0.4068,0.4122,0.4184,0.4174,0.426,0.4288,0.4323,0.4427,0.4472,0.4592,0.4654,0.4705,0.4638,0.4728,0.4668,0.4535,0.457,0.4557,0.4545,0.4517,0.4505,0.4638,0.4637,0.4637,0,0.411,0.4147,0.4142,0.4198,0.4244,0.4259,0.4342,0.4363,0.4367,0.4513,0.4532,0.4624,0.4744,0.4777,0.4798,0.4827,0.4807,0.4839,0.4824,0.4826,0.4869,0.4853,0.4838,0.5026,0.5027,0.5027,0,0,0.415,0.4142,0.423,0.4218,0.4242,0.4325,0.4352,0.4398,0.447,0.4496,0.4583,0.467,0.4748,0.4777,0.4871,0.4886,0.4932,0.4878,0.486,0.4844,0.4837,0.4875,0.486,0.5029,0.5029,0.5029,0,0,0.4178,0.4249,0.4274,0.4276,0.4326,0.4432,0.4434,0.4478,0.4538,0.454,0.4668,0.4698,0.4741,0.4817,0.4826,0.4875,0.496,0.4961,0.4799,0.4779,0.4761,0.4731,0.4944,0,0,0,0,0,0.4257,0.4237,0.4258,0.4269,0.436,0.4414,0.4431,0.4507,0.4526,0.4522,0.4604,0.4684,0.4847,0.4858,0.4885,0.4848,0.5053,0.5049,0.5045,0.4845,0.4822,0.4802,0,0,0,0,0,0,0.4262,0.4274,0.426,0.4358,0.438,0.4416,0.4487,0.4509,0.4529,0.4537,0.4665,0.4689,0.4788,0.4853,0.4875,0.4837,0.4937,0.5051,0.5048,0.5044,0.4837,0.4818,0.4802,0,0,0,0,0,0.4267,0.4276,0.4391,0.4361,0.438,0.448,0.4487,0.4506,0.4518,0.4664,0.4688,0.4569,0.4785,0.4811,0.4867,0.4824,0.4922,0.493,0.5049,0.5046,0.5044,0.4828,0,0,0,0,0,0,0.427,0.4305,0.4398,0.4409,0.4362,0.4479,0.4496,0.4503,0.4647,0.4669,0.4578,0.4584,0.4784,0.4804,0.4823,0.4811,0.491,0.4919,0.4924,0.5047,0.5045,0.5043,0,0,0,0,0,0,0.4301,0.4313,0.4404,0.4401,0.4412,0.4479,0.4493,0.4573,0.4649,0.4554,0.4562,0.4579,0.4765,0.4799,0.4814,0.4935,0.4901,0.4909,0.4914,0.4918,0.5045,0.5043,0,0,0,0,0,0,0.4308,0.4319,0.4399,0.4407,0.4417,0.4543,0.4554,0.4648,0.4622,0.4547,0.4625,0.4625,0.4759,0.4776,0.4808,0.4922,0.4932,0.4901,0.4907,0.491,0.4913,0,0,0,0,0,0,0,0.4314,0.4214,0.4333,0.4413,0.4421,0.4506,0.4509,0.4513,0.4623,0.4623,0.4624,0.4625,0.4857,0.4866,0.4874,0.4911,0,0,0.4901,0.4904,0,0,0,0,0,0,0,0,0.4213,0.4214,0.4334,0.4336,0.4338,0.4507,0.4509,0.4512,0.4623,0.4623,0.4624,0.4625,0.486,0.4866,0.4873,0,0,0,0,0,0,0,0,0,0,0,0,0,0,0,0.4334,0.4336,0,0.4507,0.4509,0.4511,0.4623,0.4623,0.4624,0.4624,0.4861,0.4867,0.4873,0,0,0,0,0,0,0,0,0,0,0,0,0,0,0,0,0,0,0,0,0,0,0,0,0,0,0,0,0,0,0,0,0,0,0,0,0,0,0,0,0,0,0,0,0,0,0,0,0,0,0,0,0,0,0,0,0,0,0,0,0,0,0,0,0,0,0,0,0]}],[{"header":{"parameterUnit":"kt","parameterCategory":2,"dx":1,"dy":1,"la1":30.253999710083008,"la2":30.299108505249023,"lo1":-89.0895004272461,"lo2":-89.04439544677734,"nx":28,"ny":28,"refTime":"2022-10-05T21:00:00:Z","depth":"0","parameterNumber":3,"parameterNumberName":"V-component_of_CURRENTS"},"data":[0.0161,0.0134,0.0128,0.0133,0.0155,0.0224,0.0277,0.0386,0.0499,0.0678,0.0819,0.0962,0.1089,0.1325,0.1696,0.1872,0.2372,0.2307,0.2602,0.2258,0.2238,0.2218,0.2246,0.2423,0.2424,0.3205,0.3212,0.3217,0.0192,0.0177,0.0165,0.0171,0.0193,0.0228,0.0303,0.037,0.0456,0.0595,0.0715,0.0908,0.1042,0.1205,0.1274,0.1512,0.1736,0.1711,0.1909,0.2101,0.1517,0.1513,0.1536,0.1536,0.1535,0.1535,0.1535,0.1535,0.0243,0.0224,0.0212,0.0205,0.0228,0.0276,0.0311,0.0375,0.0446,0.0591,0.0673,0.0847,0.0958,0.1055,0.1154,0.1294,0.1358,0.1347,0.1478,0.1538,0.1745,0.1025,0.1019,0.1019,0.1019,0.1019,0.1019,0,0.0288,0.0292,0.0272,0.0268,0.028,0.031,0.0354,0.0384,0.0494,0.0559,0.0679,0.0783,0.0933,0.1032,0.1095,0.1144,0.1419,0.1194,0.1432,0.1586,0.1623,0.1839,0.1205,0.1239,0.124,0.1241,0.1241,0.1242,0.0348,0.0333,0.0336,0.0332,0.0335,0.0355,0.038,0.0458,0.0506,0.0646,0.0687,0.0834,0.095,0.1104,0.1158,0.1228,0.1449,0.1229,0.1219,0.1384,0.1521,0.1591,0.1776,0.1255,0.1253,0.1252,0.1251,0,0.0379,0.0386,0.0372,0.039,0.0398,0.0403,0.0465,0.0503,0.0576,0.0658,0.0689,0.0844,0.0973,0.1093,0.1253,0.1251,0.1447,0.1327,0.1291,0.1291,0.1381,0.1494,0.1677,0.1898,0.125,0.1248,0.1246,0,0.0426,0.0419,0.043,0.0418,0.0424,0.0468,0.0502,0.0553,0.0638,0.0697,0.0794,0.0867,0.1023,0.1123,0.1196,0.126,0.1332,0.1287,0.1294,0.1303,0.1292,0.1495,0.1613,0.143,0.143,0.143,0.143,0,0.0444,0.0462,0.0452,0.046,0.0493,0.0508,0.0544,0.0625,0.0666,0.0766,0.081,0.0926,0.0998,0.1089,0.1195,0.1194,0.1335,0.1348,0.1292,0.1284,0.1314,0.1304,0.1551,0.1429,0.1429,0.1429,0.1429,0,0.0479,0.0476,0.0471,0.05,0.0513,0.0528,0.0596,0.0632,0.073,0.0773,0.0855,0.0921,0.1021,0.1038,0.1176,0.1152,0.1201,0.1256,0.1259,0.1179,0.1169,0.1189,0.1215,0.1427,0.1265,0.1264,0.1263,0,0.0479,0.0481,0.0514,0.0525,0.0533,0.0587,0.0619,0.0672,0.073,0.0792,0.0875,0.094,0.0969,0.1006,0.1071,0.1157,0.1195,0.1156,0.1251,0.1253,0.1154,0.1177,0.1185,0.1201,0.125,0.1251,0.1252,0,0.0494,0.0524,0.0529,0.0533,0.0584,0.0603,0.064,0.0697,0.0729,0.0788,0.0842,0.0928,0.0966,0.1005,0.1054,0.1114,0.1168,0.1133,0.1136,0.1129,0.1269,0.1169,0.1168,0.1212,0.1215,0.1216,0.1242,0,0.0508,0.0528,0.0534,0.057,0.0594,0.0612,0.0663,0.0691,0.0726,0.0772,0.084,0.0906,0.0974,0.0998,0.1029,0.11,0.1091,0.1117,0.1118,0.1146,0.115,0.1158,0.1063,0.1063,0.1063,0.1063,0,0,0.0512,0.0543,0.0586,0.0597,0.0619,0.0663,0.0674,0.0711,0.0766,0.0795,0.08,0.0913,0.0948,0.1023,0.1042,0.1055,0.1075,0.105,0.1126,0.1133,0.114,0.1145,0.1153,0.1064,0.1064,0.1064,0.1064,0,0.0529,0.0571,0.0581,0.0606,0.0642,0.068,0.0678,0.0733,0.076,0.0796,0.0843,0.089,0.0941,0.0996,0.1027,0.1053,0.1069,0.106,0.1063,0.1125,0.1132,0.1138,0.1144,0.1151,0.1064,0.1064,0.1064,0,0.0545,0.0579,0.0595,0.0646,0.0678,0.0701,0.0732,0.0757,0.0778,0.0822,0.0859,0.0899,0.095,0.0994,0.1009,0.1009,0.1066,0.1042,0.1043,0.1042,0.1107,0.1114,0.112,0.1038,0.1037,0.1037,0,0,0.0552,0.0577,0.0631,0.0654,0.067,0.0719,0.074,0.0766,0.0807,0.0825,0.0859,0.09,0.0943,0.0959,0.0995,0.1022,0.1043,0.1037,0.1039,0.104,0.104,0.1104,0.1111,0.1036,0.1036,0.1036,0,0,0.0557,0.0619,0.0635,0.0673,0.0701,0.0766,0.0782,0.0803,0.0842,0.0846,0.0887,0.0896,0.0925,0.0945,0.093,0.0996,0.0993,0.0997,0.0979,0.0981,0.0982,0.0975,0.0949,0,0,0,0,0,0.059,0.0609,0.0622,0.0635,0.0719,0.0757,0.0769,0.0815,0.0826,0.083,0.0872,0.0879,0.0958,0.0944,0.0951,0.0963,0.1023,0.1026,0.1028,0.1012,0.1014,0.1015,0,0,0,0,0,0,0.0595,0.061,0.0622,0.0686,0.0705,0.0758,0.0792,0.0806,0.0826,0.083,0.0875,0.0881,0.0913,0.0942,0.0948,0.0959,0.0947,0.1024,0.1026,0.1028,0.1013,0.1014,0.1015,0,0,0,0,0,0.0599,0.0612,0.0733,0.0687,0.0704,0.0767,0.0792,0.0803,0.0821,0.0869,0.0877,0.085,0.0913,0.0919,0.0945,0.0956,0.0943,0.0945,0.1026,0.1027,0.1028,0.1013,0,0,0,0,0,0,0.0603,0.0629,0.0738,0.0745,0.0681,0.0764,0.0778,0.0801,0.0859,0.0867,0.0846,0.0849,0.0913,0.0917,0.0922,0.0955,0.094,0.0942,0.0943,0.1027,0.1028,0.1029,0,0,0,0,0,0,0.0623,0.0635,0.0741,0.0731,0.0738,0.0762,0.0774,0.0795,0.0857,0.0833,0.0837,0.0846,0.0889,0.0916,0.092,0.0953,0.0938,0.094,0.0941,0.0942,0.1028,0.1029,0,0,0,0,0,0,0.0629,0.064,0.073,0.0735,0.0741,0.0827,0.078,0.0855,0.0877,0.0828,0.0876,0.0876,0.0886,0.0892,0.0919,0.095,0.0952,0.0938,0.0939,0.094,0.0941,0,0,0,0,0,0,0,0.0634,0.055,0.0692,0.0738,0.0743,0.081,0.0812,0.0815,0.0877,0.0876,0.0876,0.0876,0.0926,0.0929,0.0931,0.0947,0,0,0.0937,0.0938,0,0,0,0,0,0,0,0,0.0547,0.0549,0.0692,0.0693,0.0695,0.081,0.0812,0.0814,0.0877,0.0876,0.0876,0.0876,0.0927,0.0929,0.0931,0,0,0,0,0,0,0,0,0,0,0,0,0,0,0,0.0692,0.0693,0,0.0811,0.0812,0.0814,0.0876,0.0876,0.0876,0.0876,0.0928,0.0929,0.093,0,0,0,0,0,0,0,0,0,0,0,0,0,0,0,0,0,0,0,0,0,0,0,0,0,0,0,0,0,0,0,0,0,0,0,0,0,0,0,0,0,0,0,0,0,0,0,0,0,0,0,0,0,0,0,0,0,0,0,0,0,0,0,0,0,0,0,0,0]}]],[[{"header":{"parameterUnit":"kt","parameterCategory":2,"dx":1,"dy":1,"la1":30.253999710083008,"la2":30.299108505249023,"lo1":-89.0895004272461,"lo2":-89.04439544677734,"nx":28,"ny":28,"refTime":"2022-10-05T21:00:00:Z","depth":"2","parameterNumber":2,"parameterNumberName":"U-component_of_CURRENTS"},"data":[-0.1443,-0.1421,-0.1424,-0.1369,-0.1336,-0.1208,-0.115,-0.1088,-0.1072,-0.108,-0.1016,-0.1312,-0.1278,-0.1091,-0.1094,-0.0914,-0.0937,-0.0844,-0.1268,-0.1133,-0.1149,-0.1199,-0.1065,0,0,0,0,0,-0.1475,-0.1487,-0.1458,-0.1397,-0.1371,-0.1334,-0.128,-0.123,-0.1195,-0.1253,-0.1314,-0.1261,-0.1334,-0.1293,-0.1137,-0.122,-0.1138,-0.1127,-0.0998,-0.1019,-0.1037,-0.0935,-0.0835,-0.0834,-0.0833,-0.0832,0,0,-0.1544,-0.153,-0.1496,-0.1441,-0.1406,-0.1363,-0.1286,-0.1281,-0.1264,-0.1287,-0.1417,-0.1407,-0.1486,-0.1498,-0.1513,-0.1404,-0.1508,-0.1427,-0.1428,-0.1434,-0.1357,-0.1321,-0.1366,-0.1368,-0.137,-0.1372,-0.1374,0,-0.1591,-0.1566,-0.1531,-0.1481,-0.1427,-0.137,-0.1325,-0.1327,-0.1283,-0.1292,-0.135,-0.1393,-0.1488,-0.1496,-0.1587,-0.1606,-0.1539,-0.1547,-0.1762,-0.1288,-0.1248,-0.1247,-0.1245,-0.1292,-0.1294,-0.1295,-0.1297,-0.1297,-0.1628,-0.16,-0.1531,-0.1501,-0.1461,-0.1389,-0.1347,-0.1288,-0.1281,-0.1292,-0.1312,-0.1334,-0.1388,-0.1558,-0.158,-0.1667,-0.1672,-0.1586,-0.148,-0.1628,-0.1631,-0.1617,-0.1604,-0.1319,-0.1316,-0.1314,-0.1312,0,-0.164,-0.1617,-0.1559,-0.1493,-0.1471,-0.1417,-0.1343,-0.1312,-0.1273,-0.1253,-0.1225,-0.125,-0.1308,-0.135,-0.1459,-0.151,-0.1614,-0.1657,-0.146,-0.1451,-0.1604,-0.1593,-0.1734,-0.1735,-0.1736,-0.1737,-0.1738,0,-0.1649,-0.1608,-0.1562,-0.1532,-0.1478,-0.1428,-0.137,-0.1337,-0.1295,-0.1274,-0.1224,-0.1243,-0.123,-0.1304,-0.1351,-0.1459,-0.1478,-0.1498,-0.1516,-0.1341,-0.1326,-0.1447,-0.1439,-0.151,-0.1509,-0.1508,-0.1507,0,-0.1663,-0.1604,-0.1569,-0.1544,-0.1486,-0.1451,-0.1415,-0.1373,-0.1345,-0.1286,-0.1261,-0.1239,-0.1212,-0.127,-0.1312,-0.1272,-0.1445,-0.1406,-0.1472,-0.1473,-0.1354,-0.1341,-0.1505,-0.1505,-0.1505,-0.1505,-0.1504,0,-0.1662,-0.1635,-0.1588,-0.153,-0.1505,-0.1479,-0.1424,-0.1397,-0.1363,-0.1319,-0.1268,-0.122,-0.1211,-0.1183,-0.1259,-0.1205,-0.1246,-0.1287,-0.1294,-0.1312,-0.1301,-0.1262,-0.1271,-0.1364,-0.1362,-0.1361,-0.1359,0,-0.1687,-0.1646,-0.1617,-0.1565,-0.1526,-0.1484,-0.1467,-0.1429,-0.1387,-0.1344,-0.1307,-0.1237,-0.1197,-0.1128,-0.116,-0.1167,-0.1219,-0.115,-0.1274,-0.1279,-0.1286,-0.132,-0.1135,-0.1251,-0.1339,-0.1341,-0.1342,0,-0.1703,-0.1646,-0.163,-0.1599,-0.1539,-0.1509,-0.1485,-0.1445,-0.1413,-0.1347,-0.1306,-0.1237,-0.1176,-0.1155,-0.1107,-0.1143,-0.1189,-0.1122,-0.1125,-0.1194,-0.1294,-0.1293,-0.1307,-0.1173,-0.1175,-0.1176,-0.1326,0,-0.1709,-0.1666,-0.1643,-0.1596,-0.1565,-0.1519,-0.148,-0.1442,-0.138,-0.1345,-0.1276,-0.1218,-0.1151,-0.1136,-0.1098,-0.1104,-0.1111,-0.1102,-0.1124,-0.1126,-0.1189,-0.1202,-0.1057,-0.1058,-0.1058,-0.1058,0,0,-0.1725,-0.1684,-0.1644,-0.1613,-0.1576,-0.1523,-0.1487,-0.1461,-0.1371,-0.1339,-0.1296,-0.1193,-0.1156,-0.1127,-0.1096,-0.1082,-0.1108,-0.1079,-0.1111,-0.1116,-0.1122,-0.1183,-0.1195,-0.1059,-0.1059,-0.1059,-0.1059,0,-0.1727,-0.1679,-0.1655,-0.1623,-0.1555,-0.1527,-0.1507,-0.1426,-0.1383,-0.1324,-0.1266,-0.121,-0.1147,-0.1125,-0.1109,-0.1084,-0.111,-0.1059,-0.1067,-0.1111,-0.1116,-0.1121,-0.1182,-0.1192,-0.106,-0.106,-0.106,0,-0.1732,-0.1695,-0.1675,-0.1617,-0.1568,-0.1539,-0.1489,-0.1426,-0.1402,-0.1339,-0.1267,-0.1215,-0.1182,-0.1138,-0.1115,-0.1122,-0.1128,-0.1092,-0.1091,-0.1109,-0.1157,-0.1162,-0.1166,-0.1116,-0.1116,-0.1116,0,0,-0.1733,-0.1705,-0.1647,-0.1612,-0.1584,-0.1518,-0.1485,-0.1436,-0.1372,-0.1335,-0.1282,-0.1229,-0.1193,-0.1166,-0.1135,-0.1109,-0.1149,-0.1099,-0.1097,-0.1094,-0.1111,-0.1158,-0.1162,-0.1117,-0.1117,-0.1117,0,0,-0.1728,-0.1665,-0.1638,-0.1593,-0.1554,-0.1489,-0.1452,-0.1412,-0.1343,-0.1307,-0.1265,-0.1249,-0.1192,-0.1184,-0.1194,-0.1141,-0.1153,-0.115,-0.1143,-0.114,-0.1137,-0.1162,-0.1187,0,0,0,0,0,-0.1703,-0.1681,-0.1659,-0.1643,-0.1552,-0.1511,-0.1498,-0.1423,-0.1375,-0.1359,-0.1286,-0.1279,-0.1175,-0.1183,-0.1177,-0.1165,-0.1125,-0.1124,-0.1122,-0.1107,-0.1104,-0.1101,0,0,0,0,0,0,-0.1697,-0.168,-0.1659,-0.1597,-0.1575,-0.1511,-0.1456,-0.1437,-0.1375,-0.1362,-0.129,-0.1279,-0.1253,-0.1186,-0.1181,-0.1169,-0.1189,-0.1125,-0.1123,-0.1122,-0.1106,-0.1103,-0.1101,0,0,0,0,0,-0.1692,-0.1677,-0.1546,-0.1596,-0.1577,-0.1482,-0.1455,-0.1437,-0.1379,-0.1333,-0.1317,-0.1318,-0.1256,-0.1246,-0.1183,-0.1171,-0.1193,-0.1191,-0.1124,-0.1123,-0.1122,-0.1104,0,0,0,0,0,0,-0.1688,-0.1667,-0.154,-0.1532,-0.1577,-0.1482,-0.1464,-0.1438,-0.1352,-0.1335,-0.1364,-0.1356,-0.1258,-0.125,-0.1243,-0.1173,-0.1196,-0.1194,-0.1192,-0.1123,-0.1122,-0.1122,0,0,0,0,0,0,-0.1673,-0.166,-0.1536,-0.1516,-0.1505,-0.1483,-0.1467,-0.1455,-0.1352,-0.1387,-0.1377,-0.1361,-0.127,-0.1253,-0.1248,-0.1233,-0.1198,-0.1196,-0.1195,-0.1194,-0.1122,-0.1122,0,0,0,0,0,0,-0.1667,-0.1655,-0.1518,-0.151,-0.15,-0.1404,-0.1472,-0.1383,-0.1328,-0.1393,-0.1322,-0.1319,-0.1276,-0.1268,-0.1251,-0.1239,-0.1234,-0.1198,-0.1197,-0.1196,-0.1195,0,0,0,0,0,0,0,-0.1661,-0.1753,-0.1587,-0.1504,-0.1495,-0.1457,-0.1455,-0.1453,-0.1328,-0.1325,-0.1322,-0.132,-0.1208,-0.1206,-0.1204,-0.1245,0,0,-0.1198,-0.1197,0,0,0,0,0,0,0,0,-0.1756,-0.1754,-0.1587,-0.1585,-0.1583,-0.1456,-0.1455,-0.1453,-0.1327,-0.1325,-0.1323,-0.1321,-0.1208,-0.1206,-0.1205,0,0,0,0,0,0,0,0,0,0,0,0,0,0,0,-0.1586,-0.1585,0,-0.1456,-0.1455,-0.1453,-0.1327,-0.1325,-0.1323,-0.1322,-0.1207,-0.1206,-0.1205,0,0,0,0,0,0,0,0,0,0,0,0,0,0,0,0,0,0,0,0,0,0,0,0,0,0,0,0,0,0,0,0,0,0,0,0,0,0,0,0,0,0,0,0,0,0,0,0,0,0,0,0,0,0,0,0,0,0,0,0,0,0,0,0,0,0,0,0,0]}],[{"header":{"parameterUnit":"kt","parameterCategory":2,"dx":1,"dy":1,"la1":30.253999710083008,"la2":30.299108505249023,"lo1":-89.0895004272461,"lo2":-89.04439544677734,"nx":28,"ny":28,"refTime":"2022-10-05T21:00:00:Z","depth":"2","parameterNumber":3,"parameterNumberName":"V-component_of_CURRENTS"},"data":[0.0106,0.0141,0.0183,0.0158,0.0171,0.0137,0.0111,0.0147,0.0131,0.0118,0.0111,0.0175,0.0168,0.0322,0.0562,0.0813,0.0753,0.0882,0.0806,0.0496,0.0469,0.0512,0.0485,0,0,0,0,0,0.0119,0.0176,0.0213,0.0244,0.0219,0.0249,0.019,0.0178,0.018,0.0183,0.0278,0.0189,0.0377,0.0389,0.0903,0.1136,0.1121,0.0974,0.0755,0.0726,0.07,0.0702,0.0983,0.0984,0.0985,0.0986,0,0,0.0172,0.0203,0.0267,0.0292,0.0301,0.026,0.0241,0.023,0.0205,0.0202,0.0216,0.0259,0.0196,0.0559,0.0734,0.0956,0.0917,0.0687,0.0666,0.0644,0.0654,0.0751,0.0916,0.0917,0.0917,0.0917,0.0917,0,0.0221,0.0254,0.029,0.0334,0.034,0.0334,0.0315,0.0272,0.0242,0.024,0.0195,0.0226,0.0409,0.0473,0.0683,0.0713,0.0407,0.0506,0.035,0.0212,0.03,0.0279,0.0262,0.0373,0.037,0.0367,0.0366,0.0365,0.0282,0.0293,0.0357,0.0372,0.0388,0.0391,0.0371,0.0364,0.0314,0.0267,0.0212,0.0209,0.0199,0.0238,0.0365,0.0471,0.0208,0.0422,0.0343,0.0273,0.0256,0.0243,0.0232,0.0333,0.0337,0.034,0.0343,0,0.0315,0.0363,0.0375,0.041,0.0413,0.0408,0.0395,0.0352,0.0335,0.026,0.0253,0.0161,0.0128,0.0077,-0.0014,0.0031,0.0028,0.0088,0.0125,0.013,0.0196,0.0193,0.0323,0.0331,0.0337,0.0343,0.0347,0,0.0387,0.0375,0.045,0.0446,0.043,0.043,0.0379,0.0346,0.0286,0.0223,0.0179,0.0108,-0.0012,-0.0056,-0.0097,-0.0048,-0.0162,-0.0038,-0.0039,-0.0083,-0.0067,-0.0343,-0.035,-0.0292,-0.0293,-0.0294,-0.0295,0,0.0434,0.0449,0.0457,0.0451,0.0441,0.0417,0.0395,0.0306,0.0258,0.0184,0.0158,0.0038,-0.0016,-0.0076,-0.0134,-0.0173,-0.0206,-0.0291,-0.0097,-0.0081,-0.014,-0.0126,-0.0296,-0.0297,-0.0297,-0.0297,-0.0298,0,0.0477,0.0509,0.0505,0.0498,0.0489,0.0452,0.0368,0.0312,0.0204,0.0163,0.0081,0.0007,-0.0089,-0.0109,-0.0214,-0.0223,-0.0224,-0.0274,-0.0273,-0.0147,-0.0173,-0.0066,0.0026,-0.0226,-0.0226,-0.0226,-0.0227,0,0.051,0.0536,0.0548,0.0506,0.0502,0.0461,0.0394,0.0322,0.0253,0.0171,0.0061,-0.0043,-0.0087,-0.0131,-0.0187,-0.0298,-0.0283,-0.0306,-0.0367,-0.0366,-0.0178,-0.0092,-0.0117,0.0012,-0.0231,-0.023,-0.023,0,0.0536,0.0588,0.0575,0.0572,0.0534,0.0511,0.0438,0.0357,0.0308,0.0214,0.0136,-0.0051,-0.0071,-0.0177,-0.0275,-0.0325,-0.0283,-0.0356,-0.0361,-0.0266,-0.0308,-0.0119,-0.0097,-0.0365,-0.0366,-0.0366,-0.0234,0,0.0581,0.0585,0.0589,0.0575,0.0548,0.0525,0.0466,0.0417,0.0367,0.0299,0.0163,0.0012,-0.0142,-0.0197,-0.028,-0.0362,-0.034,-0.0419,-0.0456,-0.044,-0.0379,-0.0376,-0.0447,-0.0449,-0.0451,-0.0452,0,0,0.0573,0.0597,0.0608,0.0606,0.0578,0.0543,0.0518,0.0455,0.0337,0.0287,0.0266,-0.0006,-0.0137,-0.0314,-0.0322,-0.0395,-0.0392,-0.042,-0.0453,-0.0452,-0.0452,-0.0393,-0.0388,-0.0455,-0.0456,-0.0457,-0.0457,0,0.0593,0.0609,0.0622,0.0599,0.0574,0.0528,0.0534,0.0468,0.041,0.03,0.0184,0.0076,-0.0145,-0.0273,-0.0369,-0.0408,-0.046,-0.0451,-0.0411,-0.0466,-0.0462,-0.046,-0.0401,-0.0396,-0.0462,-0.0461,-0.0461,0,0.059,0.0599,0.0602,0.0592,0.0551,0.0516,0.0488,0.0459,0.0402,0.0263,0.0132,0.0025,-0.0158,-0.0297,-0.0368,-0.0393,-0.0506,-0.0521,-0.0514,-0.0514,-0.0573,-0.057,-0.0567,-0.0602,-0.0601,-0.0601,0,0,0.0597,0.0617,0.0588,0.0589,0.0581,0.0514,0.0484,0.0441,0.0343,0.0292,0.0158,0.0007,-0.0135,-0.0226,-0.0362,-0.0485,-0.0507,-0.0531,-0.0524,-0.0518,-0.0514,-0.0572,-0.0569,-0.0601,-0.06,-0.06,0,0,0.0579,0.058,0.0564,0.0576,0.0533,0.0453,0.0427,0.0394,0.0274,0.0254,0.0091,0.0041,-0.0096,-0.0201,-0.0171,-0.0384,-0.0418,-0.0429,-0.0311,-0.0305,-0.0299,-0.0259,-0.0283,0,0,0,0,0,0.0575,0.0594,0.0582,0.0579,0.052,0.0476,0.0457,0.0375,0.0356,0.0333,0.0195,0.0111,-0.0226,-0.0204,-0.0247,-0.0279,-0.059,-0.0592,-0.0594,-0.0472,-0.0464,-0.0457,0,0,0,0,0,0,0.0574,0.0575,0.058,0.0516,0.0502,0.0474,0.0413,0.0389,0.0355,0.0342,0.0143,0.0105,-0.0023,-0.0191,-0.0228,-0.0256,-0.0271,-0.0591,-0.0593,-0.0594,-0.0469,-0.0462,-0.0457,0,0,0,0,0,0.0573,0.0573,0.0514,0.0512,0.0499,0.0401,0.0411,0.039,0.035,0.017,0.0133,0.0294,-0.0018,-0.0061,-0.0214,-0.0236,-0.0247,-0.026,-0.0592,-0.0593,-0.0594,-0.0466,0,0,0,0,0,0,0.0572,0.0522,0.0507,0.0498,0.0506,0.0397,0.0383,0.0393,0.0174,0.0144,0.0311,0.0303,-0.0016,-0.0049,-0.0081,-0.0221,-0.0227,-0.0241,-0.0249,-0.0593,-0.0594,-0.0595,0,0,0,0,0,0,0.0522,0.0515,0.0502,0.05,0.0488,0.0394,0.0382,0.0251,0.0168,0.0322,0.0313,0.0309,0.0001,-0.0041,-0.0066,-0.0267,-0.0212,-0.0225,-0.0234,-0.0239,-0.0594,-0.0594,0,0,0,0,0,0,0.0516,0.051,0.0501,0.0492,0.0482,0.0359,0.0268,0.0185,0.0254,0.0329,0.025,0.0248,0.0009,-0.0018,-0.0055,-0.0244,-0.0261,-0.0212,-0.0221,-0.0227,-0.0231,0,0,0,0,0,0,0,0.0511,0.059,0.0577,0.0486,0.0477,0.0412,0.0408,0.0404,0.0253,0.0252,0.025,0.0249,-0.0139,-0.0153,-0.0167,-0.0225,0,0,-0.0211,-0.0217,0,0,0,0,0,0,0,0,0.0589,0.059,0.0577,0.0576,0.0575,0.0411,0.0408,0.0405,0.0253,0.0252,0.0251,0.025,-0.0143,-0.0154,-0.0166,0,0,0,0,0,0,0,0,0,0,0,0,0,0,0,0.0577,0.0576,0,0.0411,0.0408,0.0406,0.0253,0.0252,0.0251,0.025,-0.0146,-0.0155,-0.0165,0,0,0,0,0,0,0,0,0,0,0,0,0,0,0,0,0,0,0,0,0,0,0,0,0,0,0,0,0,0,0,0,0,0,0,0,0,0,0,0,0,0,0,0,0,0,0,0,0,0,0,0,0,0,0,0,0,0,0,0,0,0,0,0,0,0,0,0,0]}]],[[{"header":{"parameterUnit":"kt","parameterCategory":2,"dx":1,"dy":1,"la1":30.253999710083008,"la2":30.299108505249023,"lo1":-89.0895004272461,"lo2":-89.04439544677734,"nx":28,"ny":28,"refTime":"2022-10-05T21:00:00:Z","depth":"4","parameterNumber":2,"parameterNumberName":"U-component_of_CURRENTS"},"data":[-0.1099,-0.1173,-0.1221,-0.1072,-0.1021,-0.1023,-0.1119,-0.1258,-0.1206,-0.1434,-0.1419,-0.1653,-0.1656,-0.1697,-0.1674,-0.1714,-0.2006,-0.203,-0.2027,-0.2627,-0.2669,-0.2705,-0.2678,0,0,0,0,0,-0.1197,-0.1216,-0.1284,-0.1305,-0.1382,-0.1408,-0.1574,-0.1727,-0.1934,-0.1749,-0.19,-0.1778,-0.1758,-0.1717,-0.1749,-0.1894,-0.2294,-0.1923,-0.2427,-0.2653,-0.2699,-0.2657,0,0,0,0,0,0,-0.1303,-0.1336,-0.1477,-0.1558,-0.1642,-0.1607,-0.1766,-0.1806,-0.1926,-0.218,-0.1941,-0.2036,-0.2217,-0.2205,-0.217,-0.2301,-0.2266,-0.2353,-0.2411,-0.2457,-0.237,-0.2087,-0.1716,0,0,0,0,0,-0.136,-0.1509,-0.1607,-0.1702,-0.1821,-0.1909,-0.2076,-0.2135,-0.2373,-0.2685,-0.2475,-0.248,-0.2453,-0.255,-0.2679,-0.261,-0.3245,-0.3012,-0.3036,-0.3093,-0.2927,-0.2856,-0.2868,-0.2872,-0.2877,-0.2881,-0.2883,0,-0.1474,-0.1533,-0.1776,-0.1818,-0.1924,-0.2109,-0.2226,-0.255,-0.2651,-0.2823,-0.2802,-0.2954,-0.3062,-0.2948,-0.3152,-0.3174,-0.3096,-0.313,-0.3192,-0.3,-0.2918,-0.2918,-0.2917,-0.292,-0.2917,-0.2914,-0.2911,0,-0.1524,-0.164,-0.1768,-0.1983,-0.2043,-0.2152,-0.2444,-0.258,-0.2895,-0.3023,-0.314,-0.3396,-0.3437,-0.3691,-0.376,-0.3718,-0.3617,-0.3431,-0.3698,-0.3625,-0.2992,-0.2976,-0.298,-0.2967,-0.2955,-0.2946,-0.2938,0,-0.1603,-0.1698,-0.1889,-0.1928,-0.2063,-0.2233,-0.2451,-0.2627,-0.29,-0.2992,-0.3356,-0.3393,-0.3829,-0.3897,-0.3861,-0.3713,-0.3972,-0.3483,-0.3397,-0.3759,-0.3739,-0.3707,-0.3679,-0.3961,-0.3962,-0.3963,-0.3964,0,-0.1634,-0.1803,-0.1904,-0.194,-0.2136,-0.2252,-0.239,-0.2635,-0.276,-0.3087,-0.3241,-0.3552,-0.3729,-0.3822,-0.382,-0.3826,-0.3913,-0.3903,-0.3442,-0.3405,-0.3702,-0.3672,-0.3965,-0.3965,-0.3966,-0.3966,-0.3966,0,-0.1691,-0.1774,-0.1899,-0.2073,-0.2097,-0.2231,-0.2431,-0.2567,-0.2809,-0.2954,-0.3207,-0.3311,-0.3571,-0.3538,-0.3754,-0.3727,-0.3649,-0.3621,-0.3616,-0.3229,-0.3034,-0.3179,-0.3399,-0.3396,-0.3393,-0.3391,-0.3389,0,-0.1658,-0.1795,-0.1883,-0.2019,-0.2051,-0.2158,-0.2296,-0.2464,-0.2613,-0.2775,-0.2945,-0.3122,-0.3157,-0.3267,-0.3406,-0.3428,-0.3472,-0.3417,-0.3375,-0.3371,-0.3023,-0.3156,-0.3493,-0.3353,-0.3358,-0.3361,-0.3363,0,-0.1618,-0.1761,-0.1787,-0.1839,-0.198,-0.2036,-0.2188,-0.2333,-0.2457,-0.2627,-0.279,-0.2965,-0.3052,-0.3103,-0.3132,-0.3245,-0.3391,-0.3182,-0.3183,-0.3112,-0.353,-0.3149,-0.3131,-0.3456,-0.3463,-0.3469,-0.3339,0,-0.1643,-0.1723,-0.1745,-0.1855,-0.1927,-0.1994,-0.2088,-0.2185,-0.2284,-0.2384,-0.2575,-0.266,-0.2798,-0.2805,-0.2804,-0.3008,-0.2899,-0.2902,-0.2852,-0.3018,-0.2917,-0.2937,-0.2645,-0.2641,-0.2638,-0.2636,0,0,-0.1585,-0.1647,-0.1682,-0.175,-0.1795,-0.187,-0.1943,-0.2031,-0.2166,-0.2231,-0.2239,-0.2437,-0.2452,-0.2624,-0.268,-0.2657,-0.2647,-0.2666,-0.2908,-0.2939,-0.2967,-0.2884,-0.2906,-0.263,-0.2629,-0.2628,-0.2627,0,-0.1567,-0.1581,-0.1647,-0.1692,-0.1791,-0.1841,-0.188,-0.1964,-0.2033,-0.2177,-0.218,-0.2288,-0.2358,-0.2417,-0.2454,-0.2605,-0.2539,-0.2587,-0.2759,-0.2878,-0.2912,-0.2943,-0.2868,-0.289,-0.262,-0.262,-0.2621,0,-0.1513,-0.157,-0.1593,-0.1673,-0.1705,-0.177,-0.1778,-0.1877,-0.1978,-0.1967,-0.209,-0.2118,-0.215,-0.2256,-0.2301,-0.2269,-0.2453,-0.2383,-0.2398,-0.2434,-0.2554,-0.2592,-0.2627,-0.219,-0.2189,-0.2188,0,0,-0.1513,-0.1572,-0.1614,-0.1665,-0.1671,-0.1746,-0.1799,-0.1866,-0.1933,-0.1977,-0.2009,-0.2056,-0.2114,-0.2161,-0.2183,-0.2285,-0.2272,-0.2336,-0.2356,-0.2373,-0.2418,-0.2541,-0.2578,-0.2185,-0.2184,-0.2184,0,0,-0.1502,-0.1558,-0.1576,-0.1619,-0.1686,-0.1748,-0.1793,-0.1854,-0.1945,-0.1969,-0.1973,-0.1983,-0.2082,-0.2071,-0.2028,-0.2176,-0.2085,-0.2095,-0.221,-0.2235,-0.2255,-0.2303,-0.196,0,0,0,0,0,-0.1513,-0.1545,-0.156,-0.1573,-0.1658,-0.1732,-0.1753,-0.182,-0.1845,-0.1897,-0.1954,-0.1917,-0.2052,-0.2013,-0.2021,-0.21,-0.2139,-0.2147,-0.2155,-0.2323,-0.2349,-0.2372,0,0,0,0,0,0,-0.1518,-0.1528,-0.156,-0.161,-0.1632,-0.173,-0.1728,-0.1748,-0.1841,-0.1849,-0.1911,-0.1916,-0.1907,-0.2007,-0.2014,-0.2091,-0.1958,-0.2142,-0.2149,-0.2155,-0.2332,-0.2354,-0.2372,0,0,0,0,0,-0.1522,-0.1531,-0.1638,-0.1613,-0.1632,-0.1726,-0.1728,-0.1744,-0.1833,-0.1843,-0.1855,-0.1886,-0.1906,-0.1915,-0.2011,-0.2089,-0.1952,-0.1955,-0.2146,-0.2152,-0.2157,-0.2343,0,0,0,0,0,0,-0.1526,-0.156,-0.1645,-0.1656,-0.1607,-0.1725,-0.174,-0.1741,-0.1823,-0.1836,-0.181,-0.1814,-0.1906,-0.1913,-0.192,-0.2092,-0.1948,-0.1951,-0.1953,-0.2151,-0.2155,-0.2159,0,0,0,0,0,0,-0.1557,-0.1567,-0.1651,-0.1639,-0.1649,-0.1724,-0.1737,-0.1766,-0.1821,-0.1784,-0.1791,-0.181,-0.1875,-0.1911,-0.1917,-0.1963,-0.1944,-0.1947,-0.1949,-0.1951,-0.2154,-0.2157,0,0,0,0,0,0,-0.1564,-0.1574,-0.1636,-0.1644,-0.1653,-0.1782,-0.1751,-0.1822,-0.1851,-0.1778,-0.1851,-0.1851,-0.1871,-0.1879,-0.1915,-0.1958,-0.1962,-0.1945,-0.1947,-0.1948,-0.1949,0,0,0,0,0,0,0,-0.157,-0.1471,-0.1579,-0.1649,-0.1657,-0.1757,-0.176,-0.1763,-0.1851,-0.1851,-0.1851,-0.1851,-0.1928,-0.1931,-0.1935,-0.1955,0,0,-0.1944,-0.1946,0,0,0,0,0,0,0,0,-0.147,-0.1471,-0.1579,-0.1582,-0.1584,-0.1757,-0.176,-0.1762,-0.1851,-0.1851,-0.1851,-0.1851,-0.1929,-0.1932,-0.1934,0,0,0,0,0,0,0,0,0,0,0,0,0,0,0,-0.158,-0.1582,0,-0.1758,-0.176,-0.1762,-0.1851,-0.1851,-0.1851,-0.1851,-0.193,-0.1932,-0.1934,0,0,0,0,0,0,0,0,0,0,0,0,0,0,0,0,0,0,0,0,0,0,0,0,0,0,0,0,0,0,0,0,0,0,0,0,0,0,0,0,0,0,0,0,0,0,0,0,0,0,0,0,0,0,0,0,0,0,0,0,0,0,0,0,0,0,0,0,0]}],[{"header":{"parameterUnit":"kt","parameterCategory":2,"dx":1,"dy":1,"la1":30.253999710083008,"la2":30.299108505249023,"lo1":-89.0895004272461,"lo2":-89.04439544677734,"nx":28,"ny":28,"refTime":"2022-10-05T21:00:00:Z","depth":"4","parameterNumber":3,"parameterNumberName":"V-component_of_CURRENTS"},"data":[-0.0557,-0.066,-0.0694,-0.0881,-0.0987,-0.1177,-0.1276,-0.1306,-0.1249,-0.1253,-0.1068,-0.0994,-0.0657,-0.0907,-0.0324,-0.0256,0.0199,0.0151,0.016,0.0894,0.0917,0.0936,0.0784,0,0,0,0,0,-0.0523,-0.0579,-0.0711,-0.0843,-0.1032,-0.1115,-0.1271,-0.1309,-0.1345,-0.1313,-0.1278,-0.1112,-0.0752,-0.0631,-0.0343,-0.0345,0.0285,0.0005,0.063,0.0908,0.0933,0.0776,0,0,0,0,0,0,-0.0474,-0.0544,-0.0636,-0.0761,-0.0941,-0.109,-0.115,-0.1212,-0.1272,-0.1286,-0.1285,-0.1107,-0.0973,-0.0583,-0.0259,0.0054,0.0251,0.0532,0.0574,0.0602,0.0417,0.014,0.0056,0,0,0,0,0,-0.0406,-0.0455,-0.054,-0.0682,-0.0806,-0.0967,-0.108,-0.114,-0.1198,-0.1249,-0.1213,-0.1016,-0.0854,-0.0385,-0.0123,0.0324,0.0858,0.0836,0.0858,0.1058,0.0897,0.0933,0.093,0.1026,0.1029,0.1031,0.1032,0,-0.032,-0.0375,-0.0509,-0.0593,-0.0643,-0.0762,-0.0865,-0.0919,-0.1,-0.1072,-0.1098,-0.0977,-0.0834,-0.0308,0.0106,0.0657,0.0716,0.0894,0.1105,0.0935,0.0968,0.0958,0.0947,0.1052,0.1051,0.1049,0.1047,0,-0.0271,-0.0304,-0.0421,-0.0512,-0.0546,-0.063,-0.0762,-0.0861,-0.0868,-0.0941,-0.0907,-0.0768,-0.0477,-0.0103,0.0422,0.0679,0.1029,0.1035,0.1009,0.1052,0.0994,0.0975,0.1085,0.1077,0.1071,0.1066,0.1062,0,-0.0209,-0.0282,-0.0345,-0.0395,-0.0512,-0.0528,-0.0651,-0.0656,-0.0687,-0.0748,-0.0566,-0.0554,-0.0019,0.0199,0.0575,0.0858,0.1009,0.1081,0.1123,0.1265,0.1246,0.1321,0.1306,0.1437,0.1436,0.1435,0.1434,0,-0.0153,-0.0227,-0.0307,-0.0333,-0.0402,-0.0453,-0.0476,-0.0491,-0.0534,-0.0459,-0.0484,-0.0185,-0.0062,0.032,0.0643,0.0721,0.1044,0.1202,0.1112,0.1093,0.131,0.1297,0.1433,0.1433,0.1433,0.1432,0.1432,0,-0.0104,-0.0144,-0.0226,-0.0318,-0.0341,-0.0363,-0.0432,-0.0425,-0.0386,-0.0351,-0.0236,-0.0116,0.0124,0.0245,0.0677,0.0617,0.0797,0.0966,0.0977,0.0792,0.081,0.0988,0.1062,0.1059,0.1056,0.1053,0.105,0,-0.0049,-0.0119,-0.0131,-0.0194,-0.0238,-0.0218,-0.0232,-0.0206,-0.0166,-0.0153,0.0017,0.0075,0.0231,0.0276,0.0461,0.0688,0.0796,0.0686,0.1005,0.1011,0.0785,0.081,0.0893,0.1011,0.1016,0.1019,0.1022,0,-0.0012,-0.0071,-0.0075,-0.0117,-0.0097,-0.0107,-0.0094,-0.0081,-0.0113,0.0029,0.0022,0.0192,0.0265,0.0321,0.0418,0.0574,0.0731,0.0675,0.0685,0.07,0.1032,0.0789,0.0789,0.0869,0.0874,0.0878,0.0994,0,0.0014,-0.0026,-0.0043,-0.0062,-0.0054,-0.0058,-0.0015,0.0004,0.0055,0.0099,0.0171,0.0301,0.0376,0.0421,0.0481,0.0594,0.0605,0.0683,0.0716,0.0753,0.079,0.0812,0.0577,0.0578,0.0579,0.0579,0,0,0.0066,0.0004,0.0014,-0.0003,-0.0008,0.0059,0.0039,0.0086,0.0158,0.0162,0.0213,0.0345,0.0423,0.0486,0.0502,0.0546,0.0624,0.0546,0.0715,0.0729,0.0743,0.0782,0.0802,0.0581,0.0581,0.0582,0.0582,0,0.0066,0.0034,0.0005,0.0016,0.0046,0.0073,0.0078,0.012,0.0148,0.021,0.0257,0.0328,0.0428,0.0481,0.0524,0.0553,0.0632,0.0574,0.0549,0.0718,0.073,0.0743,0.0783,0.0799,0.0584,0.0584,0.0584,0,0.0093,0.0083,0.0062,0.0058,0.0077,0.008,0.012,0.0145,0.0161,0.0242,0.028,0.0343,0.0426,0.0486,0.052,0.0534,0.0657,0.0598,0.0596,0.0585,0.0761,0.0774,0.0786,0.0634,0.0633,0.0633,0,0,0.0107,0.0071,0.0086,0.006,0.0063,0.0108,0.0131,0.0158,0.0206,0.0228,0.0285,0.0352,0.0412,0.0456,0.0512,0.058,0.0648,0.06,0.0598,0.0596,0.0584,0.0757,0.0769,0.0632,0.0632,0.0632,0,0,0.0121,0.0099,0.0102,0.0059,0.0094,0.0137,0.0148,0.0179,0.0234,0.0238,0.0306,0.0326,0.0386,0.044,0.0419,0.0517,0.0532,0.0538,0.0473,0.0472,0.047,0.0436,0.0449,0,0,0,0,0,0.0134,0.0097,0.0099,0.0095,0.0097,0.013,0.0141,0.0178,0.0187,0.0199,0.0258,0.0286,0.0439,0.0422,0.0443,0.0453,0.0619,0.0622,0.0624,0.0556,0.0553,0.0551,0,0,0,0,0,0,0.0133,0.0122,0.0102,0.0131,0.0134,0.013,0.0145,0.0156,0.0186,0.0189,0.0273,0.0288,0.0332,0.0415,0.0433,0.0441,0.0443,0.062,0.0622,0.0624,0.0555,0.0553,0.0551,0,0,0,0,0,0.0132,0.0124,0.0095,0.0135,0.0138,0.0186,0.0144,0.0153,0.0179,0.0254,0.0269,0.0205,0.0331,0.035,0.0426,0.0432,0.0431,0.0437,0.0622,0.0623,0.0624,0.0554,0,0,0,0,0,0,0.0131,0.015,0.0099,0.0106,0.013,0.0189,0.019,0.0151,0.0243,0.0256,0.0189,0.019,0.033,0.0345,0.036,0.0425,0.0421,0.0428,0.0432,0.0623,0.0624,0.0625,0,0,0,0,0,0,0.0156,0.0154,0.0102,0.0093,0.0099,0.0191,0.0191,0.0259,0.0245,0.0173,0.0176,0.0188,0.0322,0.0342,0.0354,0.0458,0.0414,0.042,0.0424,0.0427,0.0624,0.0625,0,0,0,0,0,0,0.0158,0.0156,0.0092,0.0096,0.0101,0.0175,0.0257,0.0263,0.0211,0.0169,0.021,0.021,0.0319,0.0331,0.0349,0.0448,0.0456,0.0414,0.0418,0.0421,0.0423,0,0,0,0,0,0,0,0.016,0.0135,0.0062,0.0098,0.0103,0.0165,0.0166,0.0168,0.0211,0.021,0.021,0.021,0.0378,0.0384,0.0391,0.044,0,0,0.0413,0.0416,0,0,0,0,0,0,0,0,0.014,0.0136,0.0062,0.0063,0.0064,0.0165,0.0166,0.0168,0.0211,0.021,0.021,0.021,0.0379,0.0385,0.0391,0,0,0,0,0,0,0,0,0,0,0,0,0,0,0,0.0062,0.0063,0,0.0165,0.0166,0.0168,0.0211,0.021,0.021,0.021,0.0381,0.0386,0.039,0,0,0,0,0,0,0,0,0,0,0,0,0,0,0,0,0,0,0,0,0,0,0,0,0,0,0,0,0,0,0,0,0,0,0,0,0,0,0,0,0,0,0,0,0,0,0,0,0,0,0,0,0,0,0,0,0,0,0,0,0,0,0,0,0,0,0,0,0]}]]]